• In Belgium
  • List of Countries
  • For 7 days
  • Water Temperature
  • Satellite Maps
  • Weather Map
  • Weather Widgets
  • user-avatar
    Login

    Hourly Weather Tomilino

    Today, 18 July, Wednesday

    Time Temperature Precipitation Wind Pressure Humidity
    00:00 +21°C° 0.1 mm 4 mps 741 mmHg 94%
    01:00 +20°C° 0 mm 4 mps 741 mmHg 95%
    02:00 +20°C° 0 mm 4 mps 741 mmHg 95%
    03:00 +20°C° 0 mm 2 mps 741 mmHg 97%
    04:00 +20°C° 0 mm 3 mps 741 mmHg 96%
    05:00 +20°C° 0 mm 4 mps 741 mmHg 95%
    06:00 +20°C° 0 mm 5 mps 741 mmHg 94%
    07:00 +20°C° 0 mm 5 mps 741 mmHg 91%
    08:00 +21°C° 0 mm 5 mps 740 mmHg 88%
    09:00 +21°C° 0 mm 5 mps 740 mmHg 85%
    10:00 +22°C° 0.2 mm 5 mps 740 mmHg 82%
    11:00 +23°C° 0.2 mm 6 mps 740 mmHg 80%
    12:00 +23°C° 0.2 mm 6 mps 740 mmHg 77%
    13:00 +23°C° 0.6 mm 6 mps 740 mmHg 80%
    14:00 +23°C° 0.6 mm 6 mps 740 mmHg 82%
    15:00 +23°C° 0 mm 4 mps 739 mmHg 81%
    16:00 +23°C° 0.2 mm 5 mps 739 mmHg 82%
    17:00 +23°C° 0.2 mm 5 mps 739 mmHg 82%
    18:00 +22°C° 0.2 mm 5 mps 739 mmHg 82%
    19:00 +22°C° 0.1 mm 5 mps 739 mmHg 85%
    20:00 +21°C° 0.1 mm 5 mps 739 mmHg 88%
    21:00 +21°C° 0.1 mm 4 mps 739 mmHg 90%
    22:00 +20°C° 0 mm 4 mps 739 mmHg 91%
    23:00 +20°C° 0 mm 4 mps 739 mmHg 92%

    Tomorrow, 19 July, Thursday

    Time Temperature Precipitation Wind Pressure Humidity
    00:00 +20°C° 0 mm 4 mps 739 mmHg 93%
    01:00 +20°C° 0 mm 4 mps 739 mmHg 93%
    02:00 +20°C° 0 mm 4 mps 739 mmHg 92%
    03:00 +20°C° 0 mm 4 mps 739 mmHg 92%
    04:00 +20°C° 0 mm 4 mps 739 mmHg 91%
    05:00 +20°C° 0 mm 4 mps 740 mmHg 91%
    06:00 +20°C° 0 mm 5 mps 740 mmHg 91%
    07:00 +20°C° 0 mm 5 mps 740 mmHg 90%
    08:00 +20°C° 0 mm 5 mps 740 mmHg 89%
    09:00 +20°C° 0 mm 5 mps 740 mmHg 88%
    10:00 +20°C° 0.1 mm 5 mps 740 mmHg 87%
    11:00 +21°C° 0.1 mm 5 mps 740 mmHg 85%
    12:00 +21°C° 0.1 mm 4 mps 740 mmHg 83%
    13:00 +22°C° 0.2 mm 5 mps 740 mmHg 81%
    14:00 +23°C° 0.2 mm 5 mps 740 mmHg 79%
    15:00 +23°C° 0.2 mm 5 mps 740 mmHg 77%
    16:00 +23°C° 0.5 mm 5 mps 739 mmHg 80%
    17:00 +23°C° 0.5 mm 4 mps 739 mmHg 83%
    18:00 +23°C° 0.5 mm 4 mps 739 mmHg 85%
    19:00 +22°C° 0.4 mm 4 mps 739 mmHg 88%
    20:00 +21°C° 0.4 mm 4 mps 739 mmHg 90%
    21:00 +21°C° 0.4 mm 4 mps 739 mmHg 92%
    22:00 +20°C° 0 mm 4 mps 739 mmHg 93%
    23:00 +20°C° 0 mm 4 mps 739 mmHg 94%

    Day after tomorrow, 20 July, Friday

    Time Temperature Precipitation Wind Pressure Humidity
    00:00 +19°C° 0 mm 4 mps 739 mmHg 95%
    01:00 +19°C° 0 mm 3 mps 739 mmHg 96%
    02:00 +19°C° 0 mm 3 mps 739 mmHg 96%
    03:00 +19°C° 0 mm 3 mps 739 mmHg 97%
    04:00 +19°C° 0.1 mm 3 mps 739 mmHg 97%
    05:00 +19°C° 0.1 mm 3 mps 739 mmHg 96%
    06:00 +20°C° 0.1 mm 3 mps 739 mmHg 96%
    07:00 +20°C° 0.1 mm 3 mps 739 mmHg 96%
    08:00 +20°C° 0.1 mm 3 mps 739 mmHg 95%
    09:00 +20°C° 0.1 mm 3 mps 739 mmHg 95%
    10:00 +21°C° 0.3 mm 3 mps 739 mmHg 93%
    11:00 +22°C° 0.3 mm 3 mps 740 mmHg 90%
    12:00 +24°C° 0.3 mm 2 mps 740 mmHg 88%
    13:00 +25°C° 1.2 mm 2 mps 740 mmHg 84%
    14:00 +26°C° 1.2 mm 2 mps 740 mmHg 81%
    15:00 +27°C° 1.2 mm 2 mps 740 mmHg 77%
    16:00 +26°C° 1 mm 2 mps 740 mmHg 78%
    17:00 +26°C° 1 mm 2 mps 740 mmHg 79%
    18:00 +26°C° 1 mm 2 mps 740 mmHg 80%
    19:00 +25°C° 0 mm 2 mps 740 mmHg 84%
    20:00 +24°C° 0 mm 2 mps 740 mmHg 87%
    21:00 +23°C° 0 mm 2 mps 740 mmHg 91%
    22:00 +23°C° 0 mm 2 mps 740 mmHg 92%
    23:00 +21°C° 0 mm 2 mps 740 mmHg 93%

    21 July, Saturday

    Time Temperature Precipitation Wind Pressure Humidity
    00:00 +21°C° 0 mm 2 mps 740 mmHg 95%
    01:00 +20°C° 0 mm 2 mps 740 mmHg 95%
    02:00 +20°C° 0 mm 2 mps 741 mmHg 96%
    03:00 +20°C° 0 mm 2 mps 741 mmHg 96%
    04:00 +20°C° 0 mm 2 mps 741 mmHg 96%
    05:00 +20°C° 0 mm 2 mps 741 mmHg 95%
    06:00 +20°C° 0 mm 2 mps 741 mmHg 94%
    07:00 +22°C° 0 mm 3 mps 741 mmHg 89%
    08:00 +24°C° 0 mm 3 mps 741 mmHg 83%
    09:00 +26°C° 0 mm 3 mps 742 mmHg 78%
    10:00 +27°C° 0.3 mm 3 mps 742 mmHg 73%
    11:00 +28°C° 0.3 mm 3 mps 741 mmHg 69%
    12:00 +29°C° 0.3 mm 4 mps 741 mmHg 65%
    13:00 +29°C° 0.2 mm 4 mps 741 mmHg 63%
    14:00 +30°C° 0.2 mm 3 mps 741 mmHg 60%
    15:00 +30°C° 0.2 mm 3 mps 741 mmHg 58%
    16:00 +30°C° 0.2 mm 3 mps 741 mmHg 61%
    17:00 +29°C° 0.2 mm 3 mps 741 mmHg 64%
    18:00 +29°C° 0.2 mm 3 mps 741 mmHg 67%
    19:00 +27°C° 0.2 mm 3 mps 741 mmHg 73%
    20:00 +25°C° 0.2 mm 2 mps 741 mmHg 80%
    21:00 +24°C° 0.2 mm 2 mps 742 mmHg 86%
    22:00 +23°C° 0.4 mm 2 mps 741 mmHg 89%
    23:00 +23°C° 0.4 mm 2 mps 741 mmHg 91%

    22 July, Sunday

    Time Temperature Precipitation Wind Pressure Humidity
    00:00 +21°C° 0.4 mm 2 mps 741 mmHg 93%
    01:00 +21°C° 1.5 mm 2 mps 741 mmHg 94%
    02:00 +21°C° 1.5 mm 2 mps 741 mmHg 95%
    03:00 +20°C° 1.5 mm 2 mps 741 mmHg 96%
    04:00 +20°C° 0.2 mm 2 mps 741 mmHg 96%
    05:00 +20°C° 0.2 mm 2 mps 741 mmHg 96%
    06:00 +21°C° 0.2 mm 3 mps 741 mmHg 96%
    07:00 +22°C° 0 mm 3 mps 741 mmHg 92%
    08:00 +24°C° 0 mm 3 mps 741 mmHg 88%
    09:00 +25°C° 0 mm 3 mps 741 mmHg 84%
    10:00 +26°C° 0.5 mm 3 mps 741 mmHg 79%
    11:00 +27°C° 0.5 mm 3 mps 741 mmHg 75%
    12:00 +28°C° 0.5 mm 3 mps 741 mmHg 70%
    13:00 +29°C° 0.6 mm 3 mps 741 mmHg 69%
    14:00 +29°C° 0.6 mm 3 mps 741 mmHg 68%
    15:00 +29°C° 0.6 mm 3 mps 741 mmHg 66%
    16:00 +29°C° 0.2 mm 3 mps 741 mmHg 68%
    17:00 +29°C° 0.2 mm 3 mps 741 mmHg 69%
    18:00 +29°C° 0.2 mm 3 mps 741 mmHg 71%
    19:00 +27°C° 0.5 mm 3 mps 741 mmHg 76%
    20:00 +26°C° 0.5 mm 3 mps 741 mmHg 82%
    21:00 +24°C° 0.5 mm 3 mps 740 mmHg 87%
    22:00 +24°C° 1.9 mm 3 mps 740 mmHg 89%
    23:00 +22°C° 1.9 mm 3 mps 740 mmHg 91%

    23 July, Monday

    Time Temperature Precipitation Wind Pressure Humidity
    00:00 +23°C° 1.9 mm 2 mps 740 mmHg 93%
    01:00 +21°C° 0.5 mm 2 mps 740 mmHg 94%
    02:00 +21°C° 0.5 mm 2 mps 740 mmHg 95%
    03:00 +21°C° 0.5 mm 2 mps 740 mmHg 96%
    04:00 +21°C° 0.2 mm 3 mps 740 mmHg 96%
    05:00 +21°C° 0.2 mm 3 mps 740 mmHg 96%
    06:00 +21°C° 0.2 mm 3 mps 740 mmHg 96%
    07:00 +22°C° 0.2 mm 3 mps 741 mmHg 94%
    08:00 +22°C° 0.2 mm 3 mps 741 mmHg 92%
    09:00 +24°C° 0.2 mm 3 mps 741 mmHg 91%
    10:00 +25°C° 0.3 mm 3 mps 741 mmHg 87%
    11:00 +26°C° 0.3 mm 3 mps 741 mmHg 83%
    12:00 +27°C° 0.3 mm 3 mps 740 mmHg 80%
    13:00 +27°C° 0.9 mm 4 mps 740 mmHg 78%
    14:00 +27°C° 0.9 mm 4 mps 740 mmHg 77%
    15:00 +28°C° 0.9 mm 4 mps 740 mmHg 75%
    16:00 +27°C° 1.5 mm 4 mps 740 mmHg 78%
    17:00 +26°C° 1.5 mm 3 mps 740 mmHg 81%
    18:00 +26°C° 1.5 mm 3 mps 740 mmHg 84%
    19:00 +25°C° 0.2 mm 3 mps 740 mmHg 87%
    20:00 +24°C° 0.2 mm 3 mps 740 mmHg 89%
    21:00 +24°C° 0.2 mm 3 mps 740 mmHg 92%
    22:00 +22°C° 0.1 mm 3 mps 740 mmHg 93%
    23:00 +23°C° 0.1 mm 2 mps 740 mmHg 94%
    Show more